Location: Lake Crest
(37.6062°N, 88.9176°W)
Time: 14:11:37
(UTC+00:00)

Cosmos 44 Rocket - Pass Details

Date: 15 December 2019
Orbit: 660 x 730 km, 65.1° (Epoch: 25 January)

Event Time Altitude Azimuth Distance (km) Brightness Sun altitude
Rises 11:46:01 0° 214° (SW) 3,068 6.5 -14.8°
Reaches altitude 10° 11:48:23 10° 217° (SW) 2,143 5.6 -14.4°
Maximum altitude 11:53:14 70° 301° (WNW) 727 3.2 -13.5°
Drops below altitude 10° 11:58:02 10° 26° (NNE) 2,112 5.9 -12.6°
Sets 12:00:21 0° 28° (NNE) 3,020 6.7 -12.1°
